Weather in Kryukovka

Russia / Tambov Oblast     52°45′49″N   40°34′43″E
temp.,
°C
wind,
m/s
gust,
m/s
humid.,
%
clouds,
%
prec.,
mm/h
press.,
hPa
HPBL,
m
27 february, sat
sat2700:00+2w61394100 0.0 1006386
03:000w6129384 0.0 1006359
06:00+1w6139284 0.0 1004645
09:00+1w7139492 0.1 1004623
12:00+1wnw7149683 0.0 1005767
15:00−2nnw8148490 0.3 1007860
18:00−6nnw5119096 0.0 1009549
21:00−8nnw499496 0.1 1012272
28 february, sun
sun2800:00−10nnw379511 0.0 1013171
03:00−11nw339510 0.0 101457
06:00−9w2296100 0.1 101556
09:00−7nw469495 0.2 1015352
12:00−5nw369192 0.0 1015450
15:00−3nnw369096 0.1 1015550
18:00−5n239793 0.1 101648
21:00−6nne369493 0.2 1018273
1 march, mon
mon100:00−9ne129397 0.1 102021
03:00−10nne129589 0.1 102221
06:00−10n119593 0.0 102321
09:00−9n129591 0.1 102658
12:00−5nw139092 0.0 1026359
15:00−3wsw348894 0.1 1026512
18:00−5w369392 0.0 1024136
21:00−6wsw499591 0.0 1024201
2 march, tue
tue200:00−4wsw61294100 0.0 1021400
03:00−2wsw71393100 0.1 1018492
06:00−1wsw81497100 0.8 1014616
09:00+1w81498100 1.6 1011703
12:00+1wnw71399100 0.5 1009702
15:00+1nw6129099 0.7 1010942
18:00−1nw5138777 0.1 1011432
21:00−3wnw5139078 0.1 1012428
3 march, wed
wed300:00−3wnw5129092 0.0 1012359
03:00−3nw5129295 0.1 1012516
06:00−3nw5129396 0.1 1013474
09:00−3nnw6129097 0.1 1014719
12:00−2nnw81185100 0.2 10161100
15:00−2nnw7118383 0.3 1017935
18:00−4nw488896 0.0 1018207
21:00−4nw5119197 0.4 1020350